This is the latest recevied weather packets stored in our database for station/object NE1CU. If no packets are shown the sender has not sent any weather packets the latest 10 day(s).
| Time | Temp. | Humidity | Pressure | Rain* | Wind** | Luminosity | Snow |
|---|---|---|---|---|---|---|---|
| 1777921999 | 21.67° C | 39% | 1009.6 hPa | 0 mm | - | 749 W/m² | - |
| 1777921694 | 21.67° C | 36% | 1009.6 hPa | 0 mm | - | 762 W/m² | - |
| 1777921390 | 21.11° C | 37% | 1009.8 hPa | 0 mm | - | 778 W/m² | - |
| 1777921087 | 21.11° C | 36% | 1009.8 hPa | 0 mm | - | 792 W/m² | - |
| 1777920784 | 21.67° C | 37% | 1009.9 hPa | 0 mm | - | 799 W/m² | - |
| 1777920480 | 21.11° C | 37% | 1009.9 hPa | 0 mm | - | 816 W/m² | - |
| 1777920176 | 21.11° C | 37% | 1009.8 hPa | 0 mm | - | 826 W/m² | - |
| 1777919872 | 21.67° C | 35% | 1009.9 hPa | 0 mm | - | 833 W/m² | - |
| 1777919569 | 21.67° C | 34% | 1009.9 hPa | 0 mm | - | 856 W/m² | - |
| 1777919267 | 21.67° C | 35% | 1010 hPa | 0 mm | - | 857 W/m² | - |
| 1777918964 | 21.67° C | 35% | 1010.1 hPa | 0 mm | - | 870 W/m² | - |
| 1777918662 | 21.67° C | 34% | 1010.2 hPa | 0 mm | - | 878 W/m² | - |
| 1777918359 | 21.67° C | 34% | 1010.3 hPa | 0 mm | - | 886 W/m² | - |
| 1777918058 | 21.67° C | 34% | 1010.2 hPa | 0 mm | - | 893 W/m² | - |
| 1777917756 | 21.67° C | 33% | 1010.2 hPa | 0 mm | - | 892 W/m² | - |
| 1777917453 | 21.11° C | 34% | 1010.4 hPa | 0 mm | - | 909 W/m² | - |
| 1777917150 | 21.11° C | 32% | 1010.3 hPa | 0 mm | - | 910 W/m² | - |
| 1777916848 | 21.11° C | 34% | 1010.4 hPa | 0 mm | - | 922 W/m² | - |
| 1777916546 | 20.56° C | 35% | 1010.4 hPa | 0 mm | - | 927 W/m² | - |
| 1777916241 | 20.56° C | 34% | 1010.6 hPa | 0 mm | - | 935 W/m² | - |
| 1777915939 | 20.56° C | 33% | 1010.8 hPa | 0 mm | - | 933 W/m² | - |
| 1777915635 | 21.11° C | 31% | 1010.6 hPa | 0 mm | - | 931 W/m² | - |
| 1777915332 | 21.11° C | 32% | 1010.8 hPa | 0 mm | - | 934 W/m² | - |
| 1777915029 | 20.56° C | 34% | 1010.7 hPa | 0 mm | - | 940 W/m² | - |
| 1777914726 | 20.56° C | 32% | 1011 hPa | 0 mm | - | 937 W/m² | - |
* Rain latest hour (hover to see other rain measurements)
** Current wind speed in m/s (hover to see current wind gust speed)